TimeCDT,TemperatureF,Dew PointF,Humidity,Sea Level PressureIn,VisibilityMPH,Wind Direction,Wind SpeedMPH,Gust SpeedMPH,PrecipitationIn,Events,Conditions,WindDirDegrees,DateUTC
12:54 AM,71.1,66.9,87,30.10,9.0,East,3.5,-,N/A,,Clear,80,2013-08-24 05:54:00
1:54 AM,70.0,66.9,90,30.10,8.0,East,4.6,-,N/A,,Clear,100,2013-08-24 06:54:00
2:54 AM,69.1,66.0,90,30.12,8.0,East,3.5,-,N/A,,Clear,80,2013-08-24 07:54:00
3:54 AM,68.0,64.9,90,30.13,9.0,Calm,Calm,-,N/A,,Clear,0,2013-08-24 08:54:00
4:54 AM,68.0,66.0,93,30.14,6.0,Calm,Calm,-,N/A,,Clear,0,2013-08-24 09:54:00
5:04 AM,66.2,66.2,100,30.15,0.8,Calm,Calm,-,N/A,,Mist,0,2013-08-24 10:04:00
5:15 AM,66.2,66.2,100,30.16,1.0,Calm,Calm,-,N/A,,Clear,0,2013-08-24 10:15:00
5:18 AM,66.2,64.4,94,30.16,4.0,Calm,Calm,-,N/A,,Clear,0,2013-08-24 10:18:00
5:31 AM,66.2,64.4,94,30.16,1.8,East,3.5,-,N/A,,Clear,80,2013-08-24 10:31:00
5:41 AM,66.2,64.4,94,30.16,0.8,Calm,Calm,-,N/A,,Clear,0,2013-08-24 10:41:00
5:47 AM,66.2,64.4,94,30.16,2.0,Calm,Calm,-,N/A,,Clear,0,2013-08-24 10:47:00
5:54 AM,64.9,64.0,97,30.15,7.0,Calm,Calm,-,N/A,,Clear,0,2013-08-24 10:54:00
5:58 AM,64.4,64.4,100,30.16,0.8,Calm,Calm,-,N/A,,Clear,0,2013-08-24 10:58:00
6:19 AM,66.2,64.4,94,30.17,2.0,Calm,Calm,-,N/A,,Clear,0,2013-08-24 11:19:00
6:26 AM,64.4,64.4,100,30.17,4.0,Calm,Calm,-,N/A,,Clear,0,2013-08-24 11:26:00
6:54 AM,66.0,64.0,93,30.17,2.5,Calm,Calm,-,N/A,,Clear,0,2013-08-24 11:54:00
7:01 AM,66.2,64.4,94,30.18,1.2,Calm,Calm,-,N/A,,Partly Cloudy,0,2013-08-24 12:01:00
7:11 AM,66.2,66.2,100,30.18,1.5,Calm,Calm,-,N/A,,Mostly Cloudy,0,2013-08-24 12:11:00
7:19 AM,68.0,66.2,94,30.19,3.0,Calm,Calm,-,N/A,,Scattered Clouds,0,2013-08-24 12:19:00
7:54 AM,71.1,68.0,90,30.18,6.0,Calm,Calm,-,N/A,,Clear,0,2013-08-24 12:54:00
8:54 AM,73.9,69.1,85,30.19,8.0,East,4.6,-,N/A,,Clear,100,2013-08-24 13:54:00
9:54 AM,78.1,70.0,76,30.19,9.0,ESE,4.6,-,N/A,,Clear,110,2013-08-24 14:54:00
10:54 AM,82.0,70.0,67,30.19,10.0,East,5.8,-,N/A,,Clear,100,2013-08-24 15:54:00
11:54 AM,84.9,69.1,59,30.19,10.0,East,6.9,-,N/A,,Clear,90,2013-08-24 16:54:00
12:54 PM,86.0,69.1,57,30.17,10.0,East,8.1,-,N/A,,Clear,90,2013-08-24 17:54:00
1:54 PM,88.0,68.0,51,30.17,10.0,East,5.8,-,N/A,,Clear,80,2013-08-24 18:54:00
2:54 PM,89.1,66.9,48,30.15,10.0,East,5.8,-,N/A,,Clear,80,2013-08-24 19:54:00
3:54 PM,90.0,66.9,46,30.14,10.0,East,8.1,-,N/A,,Clear,100,2013-08-24 20:54:00
4:54 PM,89.1,66.0,46,30.13,10.0,ESE,10.4,-,N/A,,Clear,110,2013-08-24 21:54:00
5:54 PM,87.1,66.0,49,30.13,10.0,ESE,9.2,-,N/A,,Clear,110,2013-08-24 22:54:00
6:54 PM,84.0,68.0,58,30.13,10.0,ESE,6.9,-,N/A,,Clear,110,2013-08-24 23:54:00
7:54 PM,77.0,66.9,71,30.14,10.0,ESE,6.9,-,N/A,,Clear,120,2013-08-25 00:54:00
8:54 PM,72.0,66.9,84,30.15,9.0,East,6.9,-,N/A,,Clear,90,2013-08-25 01:54:00
9:54 PM,73.0,66.0,79,30.17,10.0,ESE,5.8,-,N/A,,Clear,110,2013-08-25 02:54:00
10:54 PM,72.0,66.0,81,30.17,9.0,East,4.6,-,N/A,,Clear,100,2013-08-25 03:54:00
11:54 PM,68.0,64.0,87,30.18,8.0,East,5.8,-,N/A,,Clear,80,2013-08-25 04:54:00